Torna al catalogo

THORAD AGENA D DEB

AttivoPO
NORAD 4822·DEBRIS·🇺🇸 United States

Lanciato Apr 8, 1970 da Vandenberg Space Force Base

Loading…

Prossimi Passaggi

TLE

Source: Space-Track
1 04822U 70025ED  26229.75363350  .00001955  00000-0  92520-3 0  9994
2 04822  99.4014  46.4481 0048946 285.6333  73.9444 14.20338329799330

Traccia THORAD AGENA D DEB in tempo reale con AllMySat

Download on the App Store